Weather History for La Paz, Mexico

Change the Weather History Date:

Monday, October 28, 2013

  Actual Average Record
Temperature  
Mean Temperature 82 °F -  
Max Temperature 97 °F 83 °F 97 °F (2013)
Min Temperature 67 °F 60 °F 57 °F (2002)
Cooling Degree Days 17    
Growing Degree Days 32 (Base 50)    
Moisture  
Dew Point 56 °F    
Average Humidity 47    
Maximum Humidity 88    
Minimum Humidity 13    
Precipitation  
Precipitation 0.00 in - - ()
Sea Level Pressure  
Sea Level Pressure 29.91 in    
Wind  
Wind Speed 5 mph ()    
Max Wind Speed 12 mph    
Max Gust Speed -    
Visibility 11.0 miles    
Events      
Averages and records for this station are not official NWS values.
T = Trace of Precipitation, MM = Missing Value Source: Averaged Metar Reports

Daily Weather History Graph

Daily Weather History Graph

Search for Another Location

Airport:

Trip Planner

Search our weather history database for the weather conditions in past years. The results will help you decide how hot, cold, wet, or windy it might be!

Date:

Astronomy

Oct. 28, 2013 Rise Set
Actual Time 6:25 AM MST 5:44 PM MST
Civil Twilight 6:02 AM MST 6:07 PM MST
Nautical Twilight 5:35 AM MST 6:34 PM MST
Astronomical Twilight 5:09 AM MST 7:00 PM MST
Moon 12:59 AM MST (10/28) 1:54 PM MST (10/28)
Length of Visible Light 12h 05m
Length of Day
11h 18m
Waning Crescent, 33% of the Moon is Illuminated
Oct 28
Waning Crescent
Nov 3
New
Nov 9
First Quarter
Nov 17
Full
Nov 25
Last Quarter

Hourly Weather History & Observations

Time (MST) Temp. Heat Index Dew Point Humidity Pressure Visibility Wind Dir Wind Speed Gust Speed Precip Events Conditions
4:40 AM 70 °F - 64 °F 74% 29.89 in 2 mi South 2.2 mph - -  
5:58 AM 64.4 °F - 60.8 °F 88% 29.88 in 10.0 mi SSW 5.8 mph - N/A   Scattered Clouds
6:42 AM 64.4 °F - 59.0 °F 83% 29.90 in 10.0 mi South 6.9 mph - N/A   Scattered Clouds
6:50 AM 90 °F - 58 °F 24% 29.86 in 19 mi NW 6.7 mph - -   Mostly Cloudy
7:40 AM 71 °F - 61 °F 62% 29.94 in 16 mi South 2.2 mph - -   Mostly Cloudy
7:47 AM 68.0 °F - 57.2 °F 68% 29.96 in 10.0 mi South 6.9 mph - N/A   Scattered Clouds
8:40 AM 71.6 °F - 53.6 °F 53% 29.92 in 10.0 mi South 6.9 mph - N/A   Scattered Clouds
9:48 AM 87.8 °F - 37.4 °F 17% 29.93 in 10.0 mi SSE 3.5 mph - N/A   Mostly Cloudy
10:42 AM 91.4 °F - 33.8 °F 13% 29.96 in 10.0 mi Calm Calm - N/A   Mostly Cloudy
10:50 AM 93 °F - 55 °F 18% 29.89 in 19 mi NW 4.5 mph - -   Clear
11:42 AM 91.4 °F - 33.8 °F 13% 29.90 in 10.0 mi NNW 9.2 mph - N/A   Mostly Cloudy
12:44 PM 86.0 °F - 44.6 °F 23% 29.88 in 10.0 mi NNW 11.5 mph - N/A   Mostly Cloudy
1:40 PM 86.0 °F 84.5 °F 55.4 °F 35% 29.91 in 10.0 mi NNW 9.2 mph - N/A   Mostly Cloudy
1:50 PM 90 °F - 58 °F 24% 29.86 in 19 mi NW 6.7 mph - -   Mostly Cloudy
2:48 PM 87.8 °F 85.7 °F 53.6 °F 31% 29.86 in 10.0 mi NW 11.5 mph - N/A   Mostly Cloudy
3:45 PM 87.8 °F - 48.2 °F 25% 29.86 in 10.0 mi NNW 6.9 mph - N/A   Mostly Cloudy
4:50 PM 89 °F - 62 °F 31% 29.85 in 19 mi WNW 4.5 mph - -   Mostly Cloudy
4:51 PM 84.2 °F 89.6 °F 71.6 °F 66% 29.96 in 10.0 mi NW 9.2 mph - N/A   Mostly Cloudy
5:50 PM 80.6 °F 83.2 °F 68.0 °F 65% 29.88 in 10.0 mi NW 5.8 mph - N/A   Mostly Cloudy
6:43 PM 78.8 °F - 66.2 °F 65% 29.89 in 10.0 mi West 5.8 mph - N/A   Mostly Cloudy
7:50 PM 81 °F - 70 °F 63% 29.91 in 2 mi South 2.2 mph - -   Mostly Cloudy
8:02 PM 78.8 °F - 64.4 °F 61% 30.01 in 10.0 mi Calm Calm - N/A   Mostly Cloudy
8:44 PM 75.2 °F - 64.4 °F 69% 29.92 in 10.0 mi Calm Calm - N/A   Mostly Cloudy
9:57 PM 75.2 °F - 53.6 °F 47% 29.92 in 10.0 mi South 5.8 mph - N/A   Mostly Cloudy
10:46 PM 75.2 °F - 53.6 °F 47% 30.06 in 10.0 mi Calm Calm - N/A   Mostly Cloudy